Time,TemperatureF,DewpointF,PressureIn,WindDirection,WindDirectionDegrees,WindSpeedMPH,WindSpeedGustMPH,Humidity,HourlyPrecipIn,Conditions,Clouds,dailyrainin,SoftwareType,DateUTC
2013-04-18 00:00:00,64.9,59.3,30.10,ESE,120,0.0,0.0,82,0.00,,,0.00,WUHU216DAVISVP2,2013-04-18 04:00:00,
2013-04-18 00:01:00,65.0,59.4,30.10,ESE,120,0.0,0.0,82,0.00,,,0.00,WUHU216DAVISVP2,2013-04-18 04:01:00,
2013-04-18 00:02:00,65.0,59.4,30.11,ESE,120,0.0,0.0,82,0.00,,,0.00,WUHU216DAVISVP2,2013-04-18 04:02:00,
2013-04-18 00:07:00,64.9,59.6,30.11,ESE,120,0.0,0.0,83,0.00,,,0.00,WUHU216DAVISVP2,2013-04-18 04:07:00,
2013-04-18 00:12:00,64.6,59.3,30.10,ESE,120,0.0,0.0,83,0.00,,,0.00,WUHU216DAVISVP2,2013-04-18 04:12:00,
2013-04-18 00:17:00,64.4,59.2,30.10,ESE,120,0.0,0.0,83,0.00,,,0.00,WUHU216DAVISVP2,2013-04-18 04:17:00,
2013-04-18 00:22:00,64.5,59.6,30.10,ESE,120,0.0,0.0,84,0.00,,,0.00,WUHU216DAVISVP2,2013-04-18 04:22:00,
2013-04-18 00:27:00,64.8,59.6,30.10,ESE,120,0.0,0.0,83,0.00,,,0.00,WUHU216DAVISVP2,2013-04-18 04:27:00,
2013-04-18 00:30:00,64.8,59.5,30.10,North,0,0.0,0.0,83,0.00,,,0.00,WUHU216DAVISVP2,2013-04-18 04:30:00,
2013-04-18 00:32:00,64.6,59.4,30.10,ESE,120,0.0,0.0,83,0.00,,,0.00,WUHU216DAVISVP2,2013-04-18 04:32:00,
2013-04-18 00:37:00,64.3,59.4,30.10,ESE,120,0.0,0.0,84,0.00,,,0.00,WUHU216DAVISVP2,2013-04-18 04:37:00,
2013-04-18 00:42:00,64.2,59.3,30.10,ESE,120,0.0,0.0,84,0.00,,,0.00,WUHU216DAVISVP2,2013-04-18 04:42:00,
2013-04-18 00:47:00,64.0,59.4,30.10,ESE,120,0.0,0.0,85,0.00,,,0.00,WUHU216DAVISVP2,2013-04-18 04:47:00,
2013-04-18 00:52:00,64.3,59.4,30.09,ESE,120,0.0,0.0,84,0.00,,,0.00,WUHU216DAVISVP2,2013-04-18 04:52:00,
2013-04-18 00:57:00,64.4,59.5,30.09,ESE,120,0.0,0.0,84,0.00,,,0.00,WUHU216DAVISVP2,2013-04-18 04:57:00,
2013-04-18 01:00:00,64.4,59.5,30.09,North,0,0.0,0.0,84,0.00,,,0.00,WUHU216DAVISVP2,2013-04-18 05:00:00,
2013-04-18 01:02:00,64.5,59.6,30.09,ESE,120,0.0,0.0,84,0.00,,,0.00,WUHU216DAVISVP2,2013-04-18 05:02:00,
2013-04-18 01:07:00,64.7,59.8,30.09,ESE,120,0.0,0.0,84,0.00,,,0.00,WUHU216DAVISVP2,2013-04-18 05:07:00,
2013-04-18 01:12:00,64.7,59.8,30.09,ESE,120,0.0,0.0,84,0.00,,,0.00,WUHU216DAVISVP2,2013-04-18 05:12:00,
2013-04-18 01:17:00,64.6,59.7,30.09,ESE,120,0.0,0.0,84,0.00,,,0.00,WUHU216DAVISVP2,2013-04-18 05:17:00,
2013-04-18 01:22:00,64.7,59.8,30.09,ESE,120,1.0,1.0,84,0.00,,,0.00,WUHU216DAVISVP2,2013-04-18 05:22:00,
2013-04-18 01:27:00,64.7,59.8,30.09,ESE,120,0.0,1.0,84,0.00,,,0.00,WUHU216DAVISVP2,2013-04-18 05:27:00,
2013-04-18 01:30:00,64.6,59.7,30.09,ESE,113,0.0,1.0,84,0.00,,,0.00,WUHU216DAVISVP2,2013-04-18 05:30:00,
2013-04-18 01:32:00,64.4,59.5,30.09,ESE,118,0.0,1.0,84,0.00,,,0.00,WUHU216DAVISVP2,2013-04-18 05:32:00,
2013-04-18 01:37:00,64.2,59.6,30.09,ESE,119,0.0,1.0,85,0.00,,,0.00,WUHU216DAVISVP2,2013-04-18 05:37:00,
2013-04-18 01:42:00,63.9,59.3,30.09,NE,47,0.0,2.0,85,0.00,,,0.00,WUHU216DAVISVP2,2013-04-18 05:42:00,
2013-04-18 01:47:00,63.7,59.1,30.09,NE,47,0.0,2.0,85,0.00,,,0.00,WUHU216DAVISVP2,2013-04-18 05:47:00,
2013-04-18 01:52:00,63.4,59.1,30.09,NE,47,0.0,2.0,86,0.00,,,0.00,WUHU216DAVISVP2,2013-04-18 05:52:00,
2013-04-18 01:57:00,63.5,59.6,30.09,NE,47,0.0,2.0,87,0.00,,,0.00,WUHU216DAVISVP2,2013-04-18 05:57:00,
2013-04-18 02:00:00,63.5,59.6,30.09,NE,45,0.0,2.0,87,0.00,,,0.00,WUHU216DAVISVP2,2013-04-18 06:00:00,
2013-04-18 02:02:00,63.5,59.6,30.09,NE,47,0.0,1.0,87,0.00,,,0.00,WUHU216DAVISVP2,2013-04-18 06:02:00,
2013-04-18 02:07:00,63.7,59.8,30.09,NE,46,0.0,0.0,87,0.00,,,0.00,WUHU216DAVISVP2,2013-04-18 06:07:00,
2013-04-18 02:12:00,63.7,59.8,30.09,NE,47,0.0,0.0,87,0.00,,,0.00,WUHU216DAVISVP2,2013-04-18 06:12:00,
2013-04-18 02:17:00,63.4,59.5,30.09,NE,47,0.0,0.0,87,0.00,,,0.00,WUHU216DAVISVP2,2013-04-18 06:17:00,
2013-04-18 02:22:00,63.3,59.7,30.09,NE,47,0.0,0.0,88,0.00,,,0.00,WUHU216DAVISVP2,2013-04-18 06:22:00,
2013-04-18 02:27:00,63.3,59.7,30.09,NE,47,0.0,0.0,88,0.00,,,0.00,WUHU216DAVISVP2,2013-04-18 06:27:00,
2013-04-18 02:30:00,63.4,59.8,30.09,North,0,0.0,0.0,88,0.00,,,0.00,WUHU216DAVISVP2,2013-04-18 06:30:00,
2013-04-18 02:32:00,63.4,59.8,30.09,NE,47,0.0,0.0,88,0.00,,,0.00,WUHU216DAVISVP2,2013-04-18 06:32:00,
2013-04-18 02:37:00,63.3,60.0,30.09,NE,47,0.0,0.0,89,0.00,,,0.00,WUHU216DAVISVP2,2013-04-18 06:37:00,
2013-04-18 02:42:00,63.3,60.0,30.09,NE,47,0.0,0.0,89,0.00,,,0.00,WUHU216DAVISVP2,2013-04-18 06:42:00,
2013-04-18 02:47:00,63.5,60.5,30.09,NE,55,1.0,1.0,90,0.00,,,0.00,WUHU216DAVISVP2,2013-04-18 06:47:00,
2013-04-18 02:52:00,63.9,60.9,30.09,SW,232,0.0,1.0,90,0.00,,,0.00,WUHU216DAVISVP2,2013-04-18 06:52:00,
2013-04-18 02:57:00,64.0,61.0,30.09,South,173,0.0,1.0,90,0.00,,,0.00,WUHU216DAVISVP2,2013-04-18 06:57:00,
2013-04-18 03:00:00,64.0,60.7,30.08,SW,225,0.0,1.0,89,0.00,,,0.00,WUHU216DAVISVP2,2013-04-18 07:00:00,
2013-04-18 03:02:00,63.9,60.6,30.09,SW,215,0.0,1.0,89,0.00,,,0.00,WUHU216DAVISVP2,2013-04-18 07:02:00,
2013-04-18 03:07:00,63.9,60.9,30.09,SW,215,0.0,1.0,90,0.00,,,0.00,WUHU216DAVISVP2,2013-04-18 07:07:00,
2013-04-18 03:12:00,63.8,60.8,30.09,SSW,200,0.0,1.0,90,0.00,,,0.00,WUHU216DAVISVP2,2013-04-18 07:12:00,
2013-04-18 03:17:00,63.9,60.9,30.09,SW,235,0.0,1.0,90,0.00,,,0.00,WUHU216DAVISVP2,2013-04-18 07:17:00,
2013-04-18 03:22:00,63.9,60.9,30.09,SW,235,0.0,1.0,90,0.00,,,0.00,WUHU216DAVISVP2,2013-04-18 07:22:00,
2013-04-18 03:27:00,63.8,60.8,30.09,SW,235,0.0,1.0,90,0.00,,,0.00,WUHU216DAVISVP2,2013-04-18 07:27:00,
2013-04-18 03:30:00,63.7,60.7,30.09,SW,225,0.0,1.0,90,0.00,,,0.00,WUHU216DAVISVP2,2013-04-18 07:30:00,
2013-04-18 03:32:00,63.7,60.7,30.08,SW,235,0.0,1.0,90,0.00,,,0.00,WUHU216DAVISVP2,2013-04-18 07:32:00,
2013-04-18 03:37:00,63.5,60.5,30.09,SW,235,0.0,1.0,90,0.00,,,0.00,WUHU216DAVISVP2,2013-04-18 07:37:00,
2013-04-18 03:42:00,63.5,60.5,30.09,SW,235,0.0,1.0,90,0.00,,,0.00,WUHU216DAVISVP2,2013-04-18 07:42:00,
2013-04-18 03:47:00,63.5,60.5,30.09,SW,235,0.0,1.0,90,0.00,,,0.00,WUHU216DAVISVP2,2013-04-18 07:47:00,
2013-04-18 03:52:00,63.5,60.5,30.09,SW,235,0.0,0.0,90,0.00,,,0.00,WUHU216DAVISVP2,2013-04-18 07:52:00,
2013-04-18 03:57:00,63.7,60.7,30.09,SW,235,0.0,0.0,90,0.00,,,0.00,WUHU216DAVISVP2,2013-04-18 07:57:00,
2013-04-18 04:00:00,63.7,60.7,30.09,SW,225,0.0,1.0,90,0.00,,,0.00,WUHU216DAVISVP2,2013-04-18 08:00:00,
2013-04-18 04:02:00,63.7,60.7,30.09,SW,235,0.0,0.0,90,0.00,,,0.00,WUHU216DAVISVP2,2013-04-18 08:02:00,
2013-04-18 04:07:00,63.8,60.8,30.09,SW,235,0.0,0.0,90,0.00,,,0.00,WUHU216DAVISVP2,2013-04-18 08:07:00,
2013-04-18 04:12:00,63.8,60.8,30.09,SW,235,0.0,0.0,90,0.00,,,0.00,WUHU216DAVISVP2,2013-04-18 08:12:00,
2013-04-18 04:17:00,63.8,60.8,30.09,SW,234,0.0,0.0,90,0.00,,,0.00,WUHU216DAVISVP2,2013-04-18 08:17:00,
2013-04-18 04:22:00,63.8,60.8,30.09,SW,235,0.0,0.0,90,0.00,,,0.00,WUHU216DAVISVP2,2013-04-18 08:22:00,
2013-04-18 04:27:00,63.8,60.5,30.09,SW,235,0.0,0.0,89,0.00,,,0.00,WUHU216DAVISVP2,2013-04-18 08:27:00,
2013-04-18 04:30:00,63.8,60.5,30.09,North,0,0.0,0.0,89,0.00,,,0.00,WUHU216DAVISVP2,2013-04-18 08:30:00,
2013-04-18 04:32:00,63.8,60.5,30.09,SSW,211,0.0,0.0,89,0.00,,,0.00,WUHU216DAVISVP2,2013-04-18 08:32:00,
2013-04-18 04:37:00,63.9,60.6,30.09,SSW,211,0.0,0.0,89,0.00,,,0.00,WUHU216DAVISVP2,2013-04-18 08:37:00,
2013-04-18 04:42:00,63.9,60.6,30.09,SSW,211,0.0,0.0,89,0.00,,,0.00,WUHU216DAVISVP2,2013-04-18 08:42:00,
2013-04-18 04:47:00,63.9,60.6,30.09,SSW,211,0.0,0.0,89,0.00,,,0.00,WUHU216DAVISVP2,2013-04-18 08:47:00,
2013-04-18 04:52:00,63.9,60.6,30.09,SSW,211,0.0,1.0,89,0.00,,,0.00,WUHU216DAVISVP2,2013-04-18 08:52:00,
2013-04-18 04:57:00,63.9,60.3,30.09,SSW,211,0.0,1.0,88,0.00,,,0.00,WUHU216DAVISVP2,2013-04-18 08:57:00,
2013-04-18 05:00:00,64.0,60.4,30.09,SSW,203,0.0,1.0,88,0.00,,,0.00,WUHU216DAVISVP2,2013-04-18 09:00:00,
2013-04-18 05:02:00,63.9,60.3,30.10,SSW,210,0.0,1.0,88,0.00,,,0.00,WUHU216DAVISVP2,2013-04-18 09:02:00,
2013-04-18 05:07:00,63.9,60.3,30.10,SSW,211,0.0,1.0,88,0.00,,,0.00,WUHU216DAVISVP2,2013-04-18 09:07:00,
2013-04-18 05:12:00,63.9,60.3,30.09,SSW,211,0.0,0.0,88,0.00,,,0.00,WUHU216DAVISVP2,2013-04-18 09:12:00,
2013-04-18 05:17:00,64.0,60.4,30.10,SSW,211,0.0,0.0,88,0.00,,,0.00,WUHU216DAVISVP2,2013-04-18 09:17:00,
2013-04-18 05:22:00,64.0,60.4,30.10,SSW,211,0.0,0.0,88,0.00,,,0.00,WUHU216DAVISVP2,2013-04-18 09:22:00,
2013-04-18 05:27:00,64.0,60.4,30.10,SSW,211,0.0,0.0,88,0.00,,,0.00,WUHU216DAVISVP2,2013-04-18 09:27:00,
2013-04-18 05:30:00,64.0,60.4,30.10,North,0,0.0,0.0,88,0.00,,,0.00,WUHU216DAVISVP2,2013-04-18 09:30:00,
2013-04-18 05:32:00,63.9,60.3,30.10,SSW,211,0.0,0.0,88,0.00,,,0.00,WUHU216DAVISVP2,2013-04-18 09:32:00,
2013-04-18 05:37:00,63.9,60.3,30.10,SSW,211,0.0,0.0,88,0.00,,,0.00,WUHU216DAVISVP2,2013-04-18 09:37:00,
2013-04-18 05:42:00,63.9,60.3,30.11,SSW,211,0.0,0.0,88,0.00,,,0.00,WUHU216DAVISVP2,2013-04-18 09:42:00,
2013-04-18 05:47:00,63.8,60.2,30.10,SSW,211,0.0,0.0,88,0.00,,,0.00,WUHU216DAVISVP2,2013-04-18 09:47:00,
2013-04-18 05:52:00,63.7,60.1,30.10,ESE,105,0.0,0.0,88,0.00,,,0.00,WUHU216DAVISVP2,2013-04-18 09:52:00,
2013-04-18 05:57:00,63.6,60.0,30.11,ESE,105,0.0,0.0,88,0.00,,,0.00,WUHU216DAVISVP2,2013-04-18 09:57:00,
2013-04-18 06:00:00,63.5,59.9,30.11,North,0,0.0,0.0,88,0.00,,,0.00,WUHU216DAVISVP2,2013-04-18 10:00:00,
2013-04-18 06:02:00,63.5,59.9,30.11,SSW,195,0.0,1.0,88,0.00,,,0.00,WUHU216DAVISVP2,2013-04-18 10:02:00,
2013-04-18 06:07:00,63.6,60.0,30.11,SSW,211,0.0,1.0,88,0.00,,,0.00,WUHU216DAVISVP2,2013-04-18 10:07:00,
2013-04-18 06:12:00,63.6,59.7,30.11,SSW,209,1.0,1.0,87,0.00,,,0.00,WUHU216DAVISVP2,2013-04-18 10:12:00,
2013-04-18 06:17:00,63.8,59.9,30.11,SSE,160,0.0,1.0,87,0.00,,,0.00,WUHU216DAVISVP2,2013-04-18 10:17:00,
2013-04-18 06:22:00,63.9,59.6,30.10,SW,221,0.0,3.0,86,0.00,,,0.00,WUHU216DAVISVP2,2013-04-18 10:22:00,
2013-04-18 06:27:00,64.0,59.7,30.11,SSW,210,0.0,3.0,86,0.00,,,0.00,WUHU216DAVISVP2,2013-04-18 10:27:00,
2013-04-18 06:30:00,64.1,59.8,30.11,SW,225,0.0,3.0,86,0.00,,,0.00,WUHU216DAVISVP2,2013-04-18 10:30:00,
2013-04-18 06:32:00,64.0,59.7,30.11,WSW,248,1.0,3.0,86,0.00,,,0.00,WUHU216DAVISVP2,2013-04-18 10:32:00,
2013-04-18 06:37:00,64.0,59.7,30.11,South,186,0.0,3.0,86,0.00,,,0.00,WUHU216DAVISVP2,2013-04-18 10:37:00,
2013-04-18 06:42:00,63.9,59.6,30.11,SSE,164,0.0,2.0,86,0.00,,,0.00,WUHU216DAVISVP2,2013-04-18 10:42:00,
2013-04-18 06:47:00,63.8,59.5,30.12,SSE,164,0.0,2.0,86,0.00,,,0.00,WUHU216DAVISVP2,2013-04-18 10:47:00,
2013-04-18 06:52:00,63.7,59.4,30.12,SSE,167,0.0,2.0,86,0.00,,,0.00,WUHU216DAVISVP2,2013-04-18 10:52:00,
2013-04-18 06:57:00,63.6,59.3,30.12,SSE,167,0.0,1.0,86,0.00,,,0.00,WUHU216DAVISVP2,2013-04-18 10:57:00,
2013-04-18 07:00:00,63.6,59.3,30.12,SSW,203,0.0,2.0,86,0.00,,,0.00,WUHU216DAVISVP2,2013-04-18 11:00:00,
2013-04-18 07:01:00,63.5,59.2,30.12,SSE,167,0.0,1.0,86,0.00,,,0.00,WUHU216DAVISVP2,2013-04-18 11:01:00,
2013-04-18 07:07:00,63.5,59.2,30.12,SSE,167,0.0,1.0,86,0.00,,,0.00,WUHU216DAVISVP2,2013-04-18 11:07:00,
2013-04-18 07:12:00,63.6,59.3,30.12,SW,218,0.0,1.0,86,0.00,,,0.00,WUHU216DAVISVP2,2013-04-18 11:12:00,
2013-04-18 07:17:00,63.6,59.3,30.13,SSE,157,0.0,1.0,86,0.00,,,0.00,WUHU216DAVISVP2,2013-04-18 11:17:00,
2013-04-18 07:22:00,63.6,59.7,30.13,SSE,157,0.0,1.0,87,0.00,,,0.00,WUHU216DAVISVP2,2013-04-18 11:22:00,
2013-04-18 07:27:00,63.6,59.7,30.13,NE,37,0.0,1.0,87,0.00,,,0.00,WUHU216DAVISVP2,2013-04-18 11:27:00,
2013-04-18 07:30:00,63.6,59.7,30.13,SW,225,0.0,1.0,87,0.00,,,0.00,WUHU216DAVISVP2,2013-04-18 11:30:00,
2013-04-18 07:32:00,63.6,59.7,30.13,NE,37,0.0,1.0,87,0.00,,,0.00,WUHU216DAVISVP2,2013-04-18 11:32:00,
2013-04-18 07:37:00,63.7,59.8,30.13,NE,37,0.0,1.0,87,0.00,,,0.00,WUHU216DAVISVP2,2013-04-18 11:37:00,
2013-04-18 07:42:00,63.7,59.4,30.14,NE,37,0.0,1.0,86,0.00,,,0.00,WUHU216DAVISVP2,2013-04-18 11:42:00,
2013-04-18 07:47:00,63.7,59.4,30.14,NE,37,0.0,0.0,86,0.00,,,0.00,WUHU216DAVISVP2,2013-04-18 11:47:00,
2013-04-18 07:52:00,63.7,59.4,30.14,NE,37,0.0,0.0,86,0.00,,,0.00,WUHU216DAVISVP2,2013-04-18 11:52:00,
2013-04-18 07:57:00,63.8,59.5,30.14,SE,135,0.0,1.0,86,0.00,,,0.00,WUHU216DAVISVP2,2013-04-18 11:57:00,
2013-04-18 08:00:00,63.8,59.5,30.14,SE,135,0.0,1.0,86,0.00,,,0.00,WUHU216DAVISVP2,2013-04-18 12:00:00,
2013-04-18 08:02:00,63.8,59.9,30.14,SE,137,0.0,1.0,87,0.00,,,0.00,WUHU216DAVISVP2,2013-04-18 12:02:00,
2013-04-18 08:07:00,63.7,59.8,30.14,SSW,201,0.0,1.0,87,0.00,,,0.00,WUHU216DAVISVP2,2013-04-18 12:07:00,
2013-04-18 08:12:00,63.6,59.7,30.15,South,171,0.0,1.0,87,0.00,,,0.00,WUHU216DAVISVP2,2013-04-18 12:12:00,
2013-04-18 08:17:00,63.7,60.1,30.15,SSE,151,0.0,1.0,88,0.00,,,0.00,WUHU216DAVISVP2,2013-04-18 12:17:00,
2013-04-18 08:22:00,63.9,60.3,30.15,SSE,150,0.0,1.0,88,0.00,,,0.00,WUHU216DAVISVP2,2013-04-18 12:22:00,
2013-04-18 08:27:00,64.2,60.2,30.15,SSW,210,0.0,2.0,87,0.00,,,0.00,WUHU216DAVISVP2,2013-04-18 12:27:00,
2013-04-18 08:30:00,64.3,60.3,30.15,SE,135,0.0,2.0,87,0.00,,,0.00,WUHU216DAVISVP2,2013-04-18 12:30:00,
2013-04-18 08:32:00,64.5,60.5,30.15,SW,224,0.0,2.0,87,0.00,,,0.00,WUHU216DAVISVP2,2013-04-18 12:32:00,
2013-04-18 08:37:00,65.2,60.9,30.14,ESE,109,1.0,3.0,86,0.00,,,0.00,WUHU216DAVISVP2,2013-04-18 12:37:00,
2013-04-18 08:42:00,66.2,61.6,30.14,ESE,118,0.0,3.0,85,0.00,,,0.00,WUHU216DAVISVP2,2013-04-18 12:42:00,
2013-04-18 08:47:00,67.1,61.8,30.14,West,260,1.0,3.0,83,0.00,,,0.00,WUHU216DAVISVP2,2013-04-18 12:47:00,
2013-04-18 08:52:00,67.4,61.8,30.15,SSW,194,1.0,4.0,82,0.00,,,0.00,WUHU216DAVISVP2,2013-04-18 12:52:00,
2013-04-18 08:57:00,67.6,61.3,30.15,SSW,207,1.0,7.0,80,0.00,,,0.00,WUHU216DAVISVP2,2013-04-18 12:57:00,
2013-04-18 09:00:00,67.7,61.3,30.14,SW,225,1.0,7.0,80,0.00,,,0.00,WUHU216DAVISVP2,2013-04-18 13:00:00,
2013-04-18 09:02:00,67.7,61.4,30.15,SE,142,0.0,7.0,80,0.00,,,0.00,WUHU216DAVISVP2,2013-04-18 13:02:00,
2013-04-18 09:07:00,67.7,61.0,30.15,ESE,112,5.0,6.0,79,0.00,,,0.00,WUHU216DAVISVP2,2013-04-18 13:07:00,
2013-04-18 09:12:00,67.5,60.8,30.15,ENE,75,1.0,6.0,79,0.00,,,0.00,WUHU216DAVISVP2,2013-04-18 13:12:00,
2013-04-18 09:17:00,67.3,61.0,30.15,SSW,203,1.0,6.0,80,0.00,,,0.00,WUHU216DAVISVP2,2013-04-18 13:17:00,
2013-04-18 09:22:00,67.1,60.8,30.15,SSW,210,3.0,6.0,80,0.00,,,0.00,WUHU216DAVISVP2,2013-04-18 13:22:00,
2013-04-18 09:27:00,66.9,60.9,30.15,East,91,1.0,5.0,81,0.00,,,0.00,WUHU216DAVISVP2,2013-04-18 13:27:00,
2013-04-18 09:30:00,66.9,60.9,30.15,SW,225,1.0,6.0,81,0.00,,,0.00,WUHU216DAVISVP2,2013-04-18 13:30:00,
2013-04-18 09:32:00,66.9,60.9,30.15,SW,221,2.0,5.0,81,0.00,,,0.00,WUHU216DAVISVP2,2013-04-18 13:32:00,
2013-04-18 09:37:00,67.3,61.3,30.14,SW,221,1.0,4.0,81,0.00,,,0.00,WUHU216DAVISVP2,2013-04-18 13:37:00,
2013-04-18 09:42:00,67.7,61.4,30.14,NE,47,1.0,3.0,80,0.00,,,0.00,WUHU216DAVISVP2,2013-04-18 13:42:00,
2013-04-18 09:47:00,67.6,60.9,30.14,SSW,210,2.0,5.0,79,0.00,,,0.00,WUHU216DAVISVP2,2013-04-18 13:47:00,
2013-04-18 09:52:00,67.7,61.0,30.14,West,278,1.0,6.0,79,0.00,,,0.00,WUHU216DAVISVP2,2013-04-18 13:52:00,
2013-04-18 09:57:00,68.1,61.4,30.14,SSW,197,1.0,6.0,79,0.00,,,0.00,WUHU216DAVISVP2,2013-04-18 13:57:00,
2013-04-18 10:00:00,68.3,61.2,30.15,SW,225,1.0,6.0,78,0.00,,,0.00,WUHU216DAVISVP2,2013-04-18 14:00:00,
2013-04-18 10:02:00,68.5,61.5,30.14,SSW,210,2.0,5.0,78,0.00,,,0.00,WUHU216DAVISVP2,2013-04-18 14:02:00,
2013-04-18 10:07:00,68.3,60.9,30.14,SSW,205,3.0,6.0,77,0.00,,,0.00,WUHU216DAVISVP2,2013-04-18 14:07:00,
2013-04-18 10:12:00,68.3,61.6,30.14,WSW,240,1.0,7.0,79,0.00,,,0.00,WUHU216DAVISVP2,2013-04-18 14:12:00,
2013-04-18 10:17:00,68.5,61.5,30.15,SSW,197,1.0,7.0,78,0.00,,,0.00,WUHU216DAVISVP2,2013-04-18 14:17:00,
2013-04-18 10:22:00,68.6,61.6,30.14,SW,215,3.0,6.0,78,0.00,,,0.00,WUHU216DAVISVP2,2013-04-18 14:22:00,
2013-04-18 10:27:00,68.5,61.5,30.14,East,97,1.0,6.0,78,0.00,,,0.00,WUHU216DAVISVP2,2013-04-18 14:27:00,
2013-04-18 10:30:00,68.5,61.4,30.14,SW,225,2.0,7.0,78,0.00,,,0.00,WUHU216DAVISVP2,2013-04-18 14:30:00,
2013-04-18 10:32:00,68.5,61.5,30.14,SW,232,0.0,6.0,78,0.00,,,0.00,WUHU216DAVISVP2,2013-04-18 14:32:00,
2013-04-18 10:37:00,68.7,61.7,30.15,SW,219,2.0,6.0,78,0.00,,,0.00,WUHU216DAVISVP2,2013-04-18 14:37:00,
2013-04-18 10:42:00,69.1,62.1,30.15,SW,225,3.0,5.0,78,0.00,,,0.00,WUHU216DAVISVP2,2013-04-18 14:42:00,
2013-04-18 10:47:00,69.8,62.7,30.15,West,260,6.0,7.0,78,0.00,,,0.00,WUHU216DAVISVP2,2013-04-18 14:47:00,
2013-04-18 10:52:00,69.9,62.5,30.15,SSW,212,2.0,7.0,77,0.00,,,0.00,WUHU216DAVISVP2,2013-04-18 14:52:00,
2013-04-18 10:57:00,70.4,62.1,30.15,SSW,210,1.0,7.0,75,0.00,,,0.00,WUHU216DAVISVP2,2013-04-18 14:57:00,
2013-04-18 11:00:00,70.6,62.3,30.15,SW,225,2.0,7.0,75,0.00,,,0.00,WUHU216DAVISVP2,2013-04-18 15:00:00,
2013-04-18 11:02:00,71.0,62.7,30.14,SW,236,3.0,6.0,75,0.00,,,0.00,WUHU216DAVISVP2,2013-04-18 15:02:00,
2013-04-18 11:07:00,71.3,62.0,30.14,WSW,255,3.0,8.0,72,0.00,,,0.00,WUHU216DAVISVP2,2013-04-18 15:07:00,
2013-04-18 11:12:00,70.9,62.3,30.14,West,266,2.0,8.0,74,0.00,,,0.00,WUHU216DAVISVP2,2013-04-18 15:12:00,
2013-04-18 11:17:00,71.3,62.7,30.14,SSE,155,1.0,8.0,74,0.00,,,0.00,WUHU216DAVISVP2,2013-04-18 15:17:00,
2013-04-18 11:22:00,72.0,62.7,30.14,WSW,242,2.0,8.0,72,0.00,,,0.00,WUHU216DAVISVP2,2013-04-18 15:22:00,
2013-04-18 11:27:00,72.8,63.0,30.14,SSW,208,1.0,7.0,71,0.00,,,0.00,WUHU216DAVISVP2,2013-04-18 15:27:00,
2013-04-18 11:30:00,73.1,62.7,30.14,WSW,248,2.0,8.0,70,0.00,,,0.00,WUHU216DAVISVP2,2013-04-18 15:30:00,
2013-04-18 11:32:00,73.5,62.5,30.14,SW,229,0.0,6.0,68,0.00,,,0.00,WUHU216DAVISVP2,2013-04-18 15:32:00,
2013-04-18 11:37:00,72.7,62.1,30.14,SSW,203,2.0,6.0,69,0.00,,,0.00,WUHU216DAVISVP2,2013-04-18 15:37:00,
2013-04-18 11:42:00,72.3,61.8,30.14,SSW,205,3.0,7.0,69,0.00,,,0.00,WUHU216DAVISVP2,2013-04-18 15:42:00,
2013-04-18 11:47:00,72.0,61.5,30.14,West,263,4.0,8.0,69,0.00,,,0.00,WUHU216DAVISVP2,2013-04-18 15:47:00,
2013-04-18 11:52:00,71.9,62.2,30.14,SW,214,2.0,8.0,71,0.00,,,0.00,WUHU216DAVISVP2,2013-04-18 15:52:00,
2013-04-18 11:57:00,72.4,62.2,30.13,SW,221,2.0,7.0,70,0.00,,,0.00,WUHU216DAVISVP2,2013-04-18 15:57:00,
2013-04-18 12:00:00,72.5,61.7,30.13,WSW,248,2.0,8.0,69,0.00,,,0.00,WUHU216DAVISVP2,2013-04-18 16:00:00,
2013-04-18 12:02:00,72.7,62.5,30.13,WSW,252,0.0,7.0,70,0.00,,,0.00,WUHU216DAVISVP2,2013-04-18 16:02:00,
2013-04-18 12:07:00,73.1,62.1,30.13,SE,136,6.0,6.0,68,0.00,,,0.00,WUHU216DAVISVP2,2013-04-18 16:07:00,
2013-04-18 12:12:00,73.2,62.2,30.13,ESE,113,2.0,6.0,68,0.00,,,0.00,WUHU216DAVISVP2,2013-04-18 16:12:00,
2013-04-18 12:17:00,73.3,62.3,30.13,WSW,240,2.0,7.0,68,0.00,,,0.00,WUHU216DAVISVP2,2013-04-18 16:17:00,
2013-04-18 12:22:00,73.8,62.8,30.12,WNW,297,0.0,7.0,68,0.00,,,0.00,WUHU216DAVISVP2,2013-04-18 16:22:00,
2013-04-18 12:27:00,74.1,62.7,30.12,WSW,243,2.0,6.0,67,0.00,,,0.00,WUHU216DAVISVP2,2013-04-18 16:27:00,
2013-04-18 12:30:00,74.2,63.0,30.12,WSW,248,2.0,7.0,68,0.00,,,0.00,WUHU216DAVISVP2,2013-04-18 16:30:00,
2013-04-18 12:32:00,74.3,62.4,30.12,WSW,256,2.0,6.0,66,0.00,,,0.00,WUHU216DAVISVP2,2013-04-18 16:32:00,
2013-04-18 12:37:00,74.2,62.7,30.12,WSW,257,2.0,5.0,67,0.00,,,0.00,WUHU216DAVISVP2,2013-04-18 16:37:00,
2013-04-18 12:42:00,74.8,62.9,30.11,West,269,1.0,5.0,66,0.00,,,0.00,WUHU216DAVISVP2,2013-04-18 16:42:00,
2013-04-18 12:47:00,75.1,63.2,30.11,ESE,115,1.0,5.0,66,0.00,,,0.00,WUHU216DAVISVP2,2013-04-18 16:47:00,
2013-04-18 12:52:00,75.5,63.1,30.11,West,274,1.0,4.0,65,0.00,,,0.00,WUHU216DAVISVP2,2013-04-18 16:52:00,
2013-04-18 12:57:00,76.2,62.7,30.11,North,1,1.0,5.0,63,0.00,,,0.00,WUHU216DAVISVP2,2013-04-18 16:57:00,
2013-04-18 13:00:00,76.4,62.4,30.10,SW,225,1.0,5.0,62,0.00,,,0.00,WUHU216DAVISVP2,2013-04-18 17:00:00,
2013-04-18 13:02:00,76.6,62.6,30.11,WNW,284,2.0,5.0,62,0.00,,,0.00,WUHU216DAVISVP2,2013-04-18 17:02:00,
2013-04-18 13:07:00,75.8,61.8,30.10,SW,219,2.0,9.0,62,0.00,,,0.00,WUHU216DAVISVP2,2013-04-18 17:07:00,
2013-04-18 13:12:00,75.7,62.4,30.10,SW,232,3.0,9.0,63,0.00,,,0.00,WUHU216DAVISVP2,2013-04-18 17:12:00,
2013-04-18 13:17:00,76.2,62.0,30.10,WSW,252,1.0,8.0,61,0.00,,,0.00,WUHU216DAVISVP2,2013-04-18 17:17:00,
2013-04-18 13:22:00,75.9,62.2,30.10,NNE,16,2.0,11.0,62,0.00,,,0.00,WUHU216DAVISVP2,2013-04-18 17:22:00,
2013-04-18 13:27:00,76.4,63.1,30.09,North,356,1.0,11.0,63,0.00,,,0.00,WUHU216DAVISVP2,2013-04-18 17:27:00,
2013-04-18 13:30:00,76.8,63.7,30.09,SW,225,2.0,12.0,64,0.00,,,0.00,WUHU216DAVISVP2,2013-04-18 17:30:00,
2013-04-18 13:32:00,77.2,62.5,30.09,SE,140,0.0,12.0,60,0.00,,,0.00,WUHU216DAVISVP2,2013-04-18 17:32:00,
2013-04-18 13:37:00,77.4,61.7,30.09,SSE,160,4.0,12.0,58,0.00,,,0.00,WUHU216DAVISVP2,2013-04-18 17:37:00,
2013-04-18 13:42:00,77.6,62.3,30.08,ENE,72,1.0,12.0,59,0.00,,,0.00,WUHU216DAVISVP2,2013-04-18 17:42:00,
2013-04-18 13:47:00,77.5,61.8,30.08,ENE,72,1.0,12.0,58,0.00,,,0.00,WUHU216DAVISVP2,2013-04-18 17:47:00,
2013-04-18 13:52:00,78.0,61.2,30.09,SSW,197,3.0,8.0,56,0.00,,,0.00,WUHU216DAVISVP2,2013-04-18 17:52:00,
2013-04-18 13:57:00,77.3,60.0,30.08,SE,143,1.0,9.0,55,0.00,,,0.00,WUHU216DAVISVP2,2013-04-18 17:57:00,
2013-04-18 14:00:00,77.2,59.8,30.08,SW,225,2.0,12.0,55,0.00,,,0.00,WUHU216DAVISVP2,2013-04-18 18:00:00,
2013-04-18 14:02:00,77.2,60.0,30.08,NE,47,3.0,9.0,55,0.00,,,0.00,WUHU216DAVISVP2,2013-04-18 18:02:00,
2013-04-18 14:07:00,77.3,60.0,30.08,West,262,2.0,9.0,55,0.00,,,0.00,WUHU216DAVISVP2,2013-04-18 18:07:00,
2013-04-18 14:12:00,77.5,60.2,30.08,SW,228,2.0,9.0,55,0.00,,,0.00,WUHU216DAVISVP2,2013-04-18 18:12:00,
2013-04-18 14:17:00,78.1,60.3,30.08,WSW,245,3.0,7.0,54,0.00,,,0.00,WUHU216DAVISVP2,2013-04-18 18:17:00,
2013-04-18 14:22:00,78.4,60.0,30.08,SSW,203,5.0,7.0,53,0.00,,,0.00,WUHU216DAVISVP2,2013-04-18 18:22:00,
2013-04-18 14:27:00,78.9,60.3,30.08,NNE,15,1.0,8.0,53,0.00,,,0.00,WUHU216DAVISVP2,2013-04-18 18:27:00,
2013-04-18 14:30:00,79.2,61.1,30.08,SW,225,2.0,8.0,54,0.00,,,0.00,WUHU216DAVISVP2,2013-04-18 18:30:00,
2013-04-18 14:32:00,79.4,59.8,30.08,WSW,250,1.0,8.0,51,0.00,,,0.00,WUHU216DAVISVP2,2013-04-18 18:32:00,
2013-04-18 14:37:00,79.6,58.9,30.08,WSW,245,2.0,8.0,49,0.00,,,0.00,WUHU216DAVISVP2,2013-04-18 18:37:00,
2013-04-18 14:42:00,78.7,60.3,30.08,SSW,207,3.0,9.0,53,0.00,,,0.00,WUHU216DAVISVP2,2013-04-18 18:42:00,
2013-04-18 14:47:00,78.3,59.4,30.08,ESE,110,5.0,9.0,52,0.00,,,0.00,WUHU216DAVISVP2,2013-04-18 18:47:00,
2013-04-18 14:52:00,78.8,58.7,30.07,West,264,2.0,9.0,50,0.00,,,0.00,WUHU216DAVISVP2,2013-04-18 18:52:00,
2013-04-18 14:57:00,78.7,58.6,30.07,SW,217,5.0,9.0,50,0.00,,,0.00,WUHU216DAVISVP2,2013-04-18 18:57:00,
2013-04-18 15:00:00,78.6,58.4,30.07,SW,225,3.0,9.0,50,0.00,,,0.00,WUHU216DAVISVP2,2013-04-18 19:00:00,
2013-04-18 15:02:00,78.2,58.7,30.07,ESE,122,3.0,7.0,51,0.00,,,0.00,WUHU216DAVISVP2,2013-04-18 19:02:00,
2013-04-18 15:07:00,78.6,59.6,30.06,South,179,2.0,7.0,52,0.00,,,0.00,WUHU216DAVISVP2,2013-04-18 19:07:00,
2013-04-18 15:12:00,79.0,59.9,30.06,WSW,257,0.0,6.0,52,0.00,,,0.00,WUHU216DAVISVP2,2013-04-18 19:12:00,
2013-04-18 15:17:00,79.2,60.6,30.06,NNW,340,0.0,6.0,53,0.00,,,0.00,WUHU216DAVISVP2,2013-04-18 19:17:00,
2013-04-18 15:22:00,79.0,59.9,30.06,ENE,78,2.0,7.0,52,0.00,,,0.00,WUHU216DAVISVP2,2013-04-18 19:22:00,
2013-04-18 15:27:00,78.3,58.8,30.06,WNW,290,1.0,11.0,51,0.00,,,0.00,WUHU216DAVISVP2,2013-04-18 19:27:00,
2013-04-18 15:30:00,78.2,58.6,30.06,SW,225,2.0,11.0,51,0.00,,,0.00,WUHU216DAVISVP2,2013-04-18 19:30:00,
2013-04-18 15:32:00,77.7,58.8,30.05,West,266,2.0,11.0,52,0.00,,,0.00,WUHU216DAVISVP2,2013-04-18 19:32:00,
2013-04-18 15:37:00,78.0,59.1,30.05,WNW,283,1.0,9.0,52,0.00,,,0.00,WUHU216DAVISVP2,2013-04-18 19:37:00,
2013-04-18 15:42:00,78.2,58.7,30.05,NW,323,2.0,9.0,51,0.00,,,0.00,WUHU216DAVISVP2,2013-04-18 19:42:00,
2013-04-18 15:47:00,79.1,59.5,30.04,SW,224,2.0,9.0,51,0.00,,,0.00,WUHU216DAVISVP2,2013-04-18 19:47:00,
2013-04-18 15:52:00,79.1,59.0,30.04,ENE,63,1.0,9.0,50,0.00,,,0.00,WUHU216DAVISVP2,2013-04-18 19:52:00,
2013-04-18 15:57:00,78.7,57.4,30.04,SW,215,5.0,9.0,48,0.00,,,0.00,WUHU216DAVISVP2,2013-04-18 19:57:00,
2013-04-18 16:00:00,78.6,57.8,30.04,SW,225,2.0,9.0,49,0.00,,,0.00,WUHU216DAVISVP2,2013-04-18 20:00:00,
2013-04-18 16:02:00,79.0,58.3,30.04,East,91,2.0,9.0,49,0.00,,,0.00,WUHU216DAVISVP2,2013-04-18 20:02:00,
2013-04-18 16:07:00,79.3,56.8,30.04,WSW,243,6.0,8.0,46,0.00,,,0.00,WUHU216DAVISVP2,2013-04-18 20:07:00,
2013-04-18 16:12:00,78.8,56.3,30.04,SW,225,3.0,7.0,46,0.00,,,0.00,WUHU216DAVISVP2,2013-04-18 20:12:00,
2013-04-18 16:17:00,78.7,57.4,30.04,East,83,1.0,7.0,48,0.00,,,0.00,WUHU216DAVISVP2,2013-04-18 20:17:00,
2013-04-18 16:22:00,78.7,57.4,30.03,SW,222,2.0,9.0,48,0.00,,,0.00,WUHU216DAVISVP2,2013-04-18 20:22:00,
2013-04-18 16:27:00,78.4,57.7,30.03,SW,219,1.0,9.0,49,0.00,,,0.00,WUHU216DAVISVP2,2013-04-18 20:27:00,
2013-04-18 16:30:00,78.4,57.1,30.03,SW,225,3.0,9.0,48,0.00,,,0.00,WUHU216DAVISVP2,2013-04-18 20:30:00,
2013-04-18 16:32:00,78.2,56.9,30.03,South,172,3.0,9.0,48,0.00,,,0.00,WUHU216DAVISVP2,2013-04-18 20:32:00,
2013-04-18 16:37:00,77.8,56.5,30.03,SSW,212,2.0,11.0,48,0.00,,,0.00,WUHU216DAVISVP2,2013-04-18 20:37:00,
2013-04-18 16:42:00,77.5,56.9,30.03,NE,37,1.0,11.0,49,0.00,,,0.00,WUHU216DAVISVP2,2013-04-18 20:42:00,
2013-04-18 16:47:00,77.5,56.9,30.03,WSW,242,5.0,10.0,49,0.00,,,0.00,WUHU216DAVISVP2,2013-04-18 20:47:00,
2013-04-18 16:52:00,78.0,56.8,30.03,WNW,298,2.0,12.0,48,0.00,,,0.00,WUHU216DAVISVP2,2013-04-18 20:52:00,
2013-04-18 16:57:00,79.2,57.9,30.03,West,273,1.0,12.0,48,0.00,,,0.00,WUHU216DAVISVP2,2013-04-18 20:57:00,
2013-04-18 17:00:00,79.6,59.3,30.03,SW,225,3.0,12.0,50,0.00,,,0.00,WUHU216DAVISVP2,2013-04-18 21:00:00,
2013-04-18 17:02:00,79.8,57.8,30.03,SSW,200,3.0,11.0,47,0.00,,,0.00,WUHU216DAVISVP2,2013-04-18 21:02:00,
2013-04-18 17:07:00,79.1,57.8,30.02,ESE,110,0.0,13.0,48,0.00,,,0.00,WUHU216DAVISVP2,2013-04-18 21:07:00,
2013-04-18 17:12:00,78.7,56.8,30.02,NW,311,1.0,13.0,47,0.00,,,0.00,WUHU216DAVISVP2,2013-04-18 21:12:00,
2013-04-18 17:17:00,78.2,57.0,30.02,ESE,111,3.0,13.0,48,0.00,,,0.00,WUHU216DAVISVP2,2013-04-18 21:17:00,
2013-04-18 17:22:00,77.9,56.7,30.02,SE,125,0.0,13.0,48,0.00,,,0.00,WUHU216DAVISVP2,2013-04-18 21:22:00,
2013-04-18 17:27:00,77.6,56.4,30.01,NW,322,1.0,6.0,48,0.00,,,0.00,WUHU216DAVISVP2,2013-04-18 21:27:00,
2013-04-18 17:30:00,77.6,56.4,30.01,SW,225,2.0,13.0,48,0.00,,,0.00,WUHU216DAVISVP2,2013-04-18 21:30:00,
2013-04-18 17:32:00,77.6,56.4,30.01,North,356,2.0,6.0,48,0.00,,,0.00,WUHU216DAVISVP2,2013-04-18 21:32:00,
2013-04-18 17:38:00,77.5,56.3,30.01,South,169,1.0,6.0,48,0.00,,,0.00,WUHU216DAVISVP2,2013-04-18 21:38:00,
2013-04-18 17:42:00,77.8,56.0,30.01,WSW,255,2.0,6.0,47,0.00,,,0.00,WUHU216DAVISVP2,2013-04-18 21:42:00,
2013-04-18 17:47:00,78.4,56.6,30.00,SE,125,1.0,6.0,47,0.00,,,0.00,WUHU216DAVISVP2,2013-04-18 21:47:00,
2013-04-18 17:52:00,78.6,56.7,30.00,West,269,3.0,6.0,47,0.00,,,0.00,WUHU216DAVISVP2,2013-04-18 21:52:00,
2013-04-18 17:57:00,78.6,56.7,30.00,East,99,1.0,8.0,47,0.00,,,0.00,WUHU216DAVISVP2,2013-04-18 21:57:00,
2013-04-18 18:00:00,78.6,56.7,30.00,SW,225,2.0,8.0,47,0.00,,,0.00,WUHU216DAVISVP2,2013-04-18 22:00:00,
2013-04-18 18:02:00,78.4,56.6,30.00,SW,228,3.0,8.0,47,0.00,,,0.00,WUHU216DAVISVP2,2013-04-18 22:02:00,
2013-04-18 18:07:00,77.8,56.6,30.00,West,260,1.0,8.0,48,0.00,,,0.00,WUHU216DAVISVP2,2013-04-18 22:07:00,
2013-04-18 18:12:00,77.7,57.1,30.00,SW,226,1.0,8.0,49,0.00,,,0.00,WUHU216DAVISVP2,2013-04-18 22:12:00,
2013-04-18 18:17:00,78.1,57.5,29.99,SW,226,3.0,8.0,49,0.00,,,0.00,WUHU216DAVISVP2,2013-04-18 22:17:00,
2013-04-18 18:22:00,78.4,57.2,29.99,WSW,243,4.0,8.0,48,0.00,,,0.00,WUHU216DAVISVP2,2013-04-18 22:22:00,
2013-04-18 18:27:00,78.6,56.7,29.99,WSW,243,2.0,6.0,47,0.00,,,0.00,WUHU216DAVISVP2,2013-04-18 22:27:00,
2013-04-18 18:30:00,78.6,57.8,29.99,SW,225,2.0,8.0,49,0.00,,,0.00,WUHU216DAVISVP2,2013-04-18 22:30:00,
2013-04-18 18:32:00,78.7,57.4,29.99,South,181,2.0,6.0,48,0.00,,,0.00,WUHU216DAVISVP2,2013-04-18 22:32:00,
2013-04-18 18:37:00,78.2,57.0,29.99,WSW,255,1.0,5.0,48,0.00,,,0.00,WUHU216DAVISVP2,2013-04-18 22:37:00,
2013-04-18 18:42:00,77.5,56.9,29.99,SSW,208,2.0,5.0,49,0.00,,,0.00,WUHU216DAVISVP2,2013-04-18 22:42:00,
2013-04-18 18:47:00,77.0,57.0,29.99,SE,138,1.0,5.0,50,0.00,,,0.00,WUHU216DAVISVP2,2013-04-18 22:47:00,
2013-04-18 18:52:00,77.0,57.0,29.99,SW,215,1.0,5.0,50,0.00,,,0.00,WUHU216DAVISVP2,2013-04-18 22:52:00,
2013-04-18 18:57:00,77.4,58.0,29.99,SW,217,1.0,5.0,51,0.00,,,0.00,WUHU216DAVISVP2,2013-04-18 22:57:00,
2013-04-18 19:00:00,77.4,57.9,29.99,SW,225,1.0,5.0,51,0.00,,,0.00,WUHU216DAVISVP2,2013-04-18 23:00:00,
2013-04-18 19:02:00,77.5,57.5,29.98,SSW,201,0.0,5.0,50,0.00,,,0.00,WUHU216DAVISVP2,2013-04-18 23:02:00,
2013-04-18 19:07:00,77.5,57.5,29.98,North,5,1.0,3.0,50,0.00,,,0.00,WUHU216DAVISVP2,2013-04-18 23:07:00,
2013-04-18 19:12:00,77.1,57.0,29.98,ESE,105,0.0,3.0,50,0.00,,,0.00,WUHU216DAVISVP2,2013-04-18 23:12:00,
2013-04-18 19:17:00,76.6,57.1,29.98,WSW,242,1.0,3.0,51,0.00,,,0.00,WUHU216DAVISVP2,2013-04-18 23:17:00,
2013-04-18 19:22:00,76.1,57.7,29.99,ESE,104,0.0,3.0,53,0.00,,,0.00,WUHU216DAVISVP2,2013-04-18 23:22:00,
2013-04-18 19:27:00,75.5,57.2,29.99,SSW,208,0.0,3.0,53,0.00,,,0.00,WUHU216DAVISVP2,2013-04-18 23:27:00,
2013-04-18 19:30:00,75.4,57.6,29.99,SW,225,0.0,3.0,54,0.00,,,0.00,WUHU216DAVISVP2,2013-04-18 23:30:00,
2013-04-18 19:32:00,75.1,57.5,29.98,WNW,288,0.0,2.0,54,0.00,,,0.00,WUHU216DAVISVP2,2013-04-18 23:32:00,
2013-04-18 19:37:00,74.7,57.6,29.99,WNW,291,0.0,2.0,55,0.00,,,0.00,WUHU216DAVISVP2,2013-04-18 23:37:00,
2013-04-18 19:42:00,74.4,57.8,29.99,ESE,121,0.0,2.0,56,0.00,,,0.00,WUHU216DAVISVP2,2013-04-18 23:42:00,
2013-04-18 19:47:00,74.1,58.1,29.98,SW,214,1.0,2.0,57,0.00,,,0.00,WUHU216DAVISVP2,2013-04-18 23:47:00,
2013-04-18 19:52:00,73.8,57.8,29.98,SSE,163,0.0,2.0,57,0.00,,,0.00,WUHU216DAVISVP2,2013-04-18 23:52:00,
2013-04-18 19:57:00,73.6,58.1,29.98,SE,145,0.0,2.0,58,0.00,,,0.00,WUHU216DAVISVP2,2013-04-18 23:57:00,
2013-04-18 20:00:00,73.5,58.3,29.99,SE,135,0.0,2.0,59,0.00,,,0.00,WUHU216DAVISVP2,2013-04-19 00:00:00,
2013-04-18 20:02:00,73.3,58.3,29.99,SSE,150,0.0,3.0,59,0.00,,,0.00,WUHU216DAVISVP2,2013-04-19 00:02:00,
2013-04-18 20:07:00,73.1,58.6,29.99,SSW,210,0.0,3.0,60,0.00,,,0.00,WUHU216DAVISVP2,2013-04-19 00:07:00,
2013-04-18 20:12:00,72.9,58.9,29.98,SW,221,0.0,3.0,61,0.00,,,0.00,WUHU216DAVISVP2,2013-04-19 00:12:00,
2013-04-18 20:17:00,72.7,58.7,29.98,SSW,210,0.0,3.0,61,0.00,,,0.00,WUHU216DAVISVP2,2013-04-19 00:17:00,
2013-04-18 20:22:00,72.5,58.9,29.98,SE,145,0.0,2.0,62,0.00,,,0.00,WUHU216DAVISVP2,2013-04-19 00:22:00,
2013-04-18 20:27:00,72.2,58.7,29.98,SSW,211,0.0,2.0,62,0.00,,,0.00,WUHU216DAVISVP2,2013-04-19 00:27:00,
2013-04-18 20:30:00,72.2,58.9,29.98,SE,135,0.0,3.0,63,0.00,,,0.00,WUHU216DAVISVP2,2013-04-19 00:30:00,
2013-04-18 20:32:00,71.9,58.8,29.98,SSE,166,0.0,2.0,63,0.00,,,0.00,WUHU216DAVISVP2,2013-04-19 00:32:00,
2013-04-18 20:37:00,71.5,58.9,29.99,SSE,166,0.0,2.0,64,0.00,,,0.00,WUHU216DAVISVP2,2013-04-19 00:37:00,
2013-04-18 20:42:00,71.2,59.0,29.99,SSW,200,0.0,1.0,65,0.00,,,0.00,WUHU216DAVISVP2,2013-04-19 00:42:00,
2013-04-18 20:47:00,71.0,58.8,29.98,SE,129,0.0,1.0,65,0.00,,,0.00,WUHU216DAVISVP2,2013-04-19 00:47:00,
2013-04-18 20:52:00,70.7,58.8,29.98,SSE,153,0.0,1.0,66,0.00,,,0.00,WUHU216DAVISVP2,2013-04-19 00:52:00,
2013-04-18 20:57:00,70.6,59.1,29.98,ESE,107,0.0,3.0,67,0.00,,,0.00,WUHU216DAVISVP2,2013-04-19 00:57:00,
2013-04-18 21:00:00,70.6,59.1,29.98,ESE,113,0.0,3.0,67,0.00,,,0.00,WUHU216DAVISVP2,2013-04-19 01:00:00,
2013-04-18 21:02:00,70.5,59.2,29.98,ESE,108,0.0,3.0,67,0.00,,,0.00,WUHU216DAVISVP2,2013-04-19 01:02:00,
2013-04-18 21:07:00,70.6,59.1,29.98,SE,124,1.0,2.0,67,0.00,,,0.00,WUHU216DAVISVP2,2013-04-19 01:07:00,
2013-04-18 21:12:00,70.7,59.6,29.98,ESE,107,0.0,2.0,68,0.00,,,0.00,WUHU216DAVISVP2,2013-04-19 01:12:00,
2013-04-18 21:17:00,70.7,59.6,29.98,SE,136,1.0,2.0,68,0.00,,,0.00,WUHU216DAVISVP2,2013-04-19 01:17:00,
2013-04-18 21:22:00,70.8,59.9,29.98,SW,232,0.0,2.0,68,0.00,,,0.00,WUHU216DAVISVP2,2013-04-19 01:22:00,
2013-04-18 21:27:00,70.8,59.9,29.98,SE,137,0.0,2.0,68,0.00,,,0.00,WUHU216DAVISVP2,2013-04-19 01:27:00,
2013-04-18 21:30:00,70.7,59.6,29.98,SE,135,0.0,2.0,68,0.00,,,0.00,WUHU216DAVISVP2,2013-04-19 01:30:00,
2013-04-18 21:32:00,70.6,59.7,29.99,SW,231,0.0,3.0,68,0.00,,,0.00,WUHU216DAVISVP2,2013-04-19 01:32:00,
2013-04-18 21:37:00,70.4,59.9,29.99,ESE,111,0.0,3.0,69,0.00,,,0.00,WUHU216DAVISVP2,2013-04-19 01:37:00,
2013-04-18 21:42:00,70.3,60.2,29.99,SW,231,0.0,3.0,70,0.00,,,0.00,WUHU216DAVISVP2,2013-04-19 01:42:00,
2013-04-18 21:47:00,70.3,60.2,29.99,SSW,199,0.0,3.0,70,0.00,,,0.00,WUHU216DAVISVP2,2013-04-19 01:47:00,
2013-04-18 21:52:00,70.3,60.1,29.99,WSW,242,4.0,4.0,70,0.00,,,0.00,WUHU216DAVISVP2,2013-04-19 01:52:00,
2013-04-18 21:57:00,70.4,60.3,29.99,SSE,163,0.0,4.0,70,0.00,,,0.00,WUHU216DAVISVP2,2013-04-19 01:57:00,
2013-04-18 22:00:00,70.4,60.1,29.99,ESE,113,0.0,4.0,70,0.00,,,0.00,WUHU216DAVISVP2,2013-04-19 02:00:00,
2013-04-18 22:02:00,70.5,60.4,29.99,ESE,109,1.0,4.0,70,0.00,,,0.00,WUHU216DAVISVP2,2013-04-19 02:02:00,
2013-04-18 22:07:00,70.5,60.4,29.99,SSE,162,0.0,5.0,70,0.00,,,0.00,WUHU216DAVISVP2,2013-04-19 02:07:00,
2013-04-18 22:12:00,70.4,60.1,29.99,SE,127,3.0,5.0,70,0.00,,,0.00,WUHU216DAVISVP2,2013-04-19 02:12:00,
2013-04-18 22:17:00,70.4,60.7,29.99,East,98,1.0,5.0,71,0.00,,,0.00,WUHU216DAVISVP2,2013-04-19 02:17:00,
2013-04-18 22:22:00,70.3,60.6,29.98,SE,125,0.0,5.0,71,0.00,,,0.00,WUHU216DAVISVP2,2013-04-19 02:22:00,
2013-04-18 22:27:00,70.2,60.5,29.99,SSW,207,1.0,6.0,71,0.00,,,0.00,WUHU216DAVISVP2,2013-04-19 02:27:00,
2013-04-18 22:30:00,70.1,60.3,29.99,SE,135,1.0,6.0,71,0.00,,,0.00,WUHU216DAVISVP2,2013-04-19 02:30:00,
2013-04-18 22:32:00,70.1,60.4,29.99,ESE,110,0.0,6.0,71,0.00,,,0.00,WUHU216DAVISVP2,2013-04-19 02:32:00,
2013-04-18 22:37:00,70.0,60.3,29.99,ESE,123,1.0,6.0,71,0.00,,,0.00,WUHU216DAVISVP2,2013-04-19 02:37:00,
2013-04-18 22:42:00,69.9,59.8,29.99,SSE,162,3.0,6.0,70,0.00,,,0.00,WUHU216DAVISVP2,2013-04-19 02:42:00,
2013-04-18 22:47:00,69.9,59.8,29.99,East,86,1.0,6.0,70,0.00,,,0.00,WUHU216DAVISVP2,2013-04-19 02:47:00,
2013-04-18 22:52:00,69.8,59.7,29.99,South,184,0.0,6.0,70,0.00,,,0.00,WUHU216DAVISVP2,2013-04-19 02:52:00,
2013-04-18 22:57:00,69.6,59.9,29.99,South,170,1.0,6.0,71,0.00,,,0.00,WUHU216DAVISVP2,2013-04-19 02:57:00,
2013-04-18 23:00:00,69.6,59.4,29.99,ESE,113,1.0,6.0,70,0.00,,,0.00,WUHU216DAVISVP2,2013-04-19 03:00:00,
2013-04-18 23:02:00,69.7,59.7,29.99,SW,236,2.0,6.0,70,0.00,,,0.00,WUHU216DAVISVP2,2013-04-19 03:02:00,
2013-04-18 23:07:00,69.6,59.6,29.99,ESE,103,1.0,6.0,70,0.00,,,0.00,WUHU216DAVISVP2,2013-04-19 03:07:00,
2013-04-18 23:12:00,69.6,59.4,29.98,SSW,194,2.0,6.0,70,0.00,,,0.00,WUHU216DAVISVP2,2013-04-19 03:12:00,
2013-04-18 23:17:00,69.5,59.3,29.98,SSE,159,0.0,6.0,70,0.00,,,0.00,WUHU216DAVISVP2,2013-04-19 03:17:00,
2013-04-18 23:22:00,69.3,59.3,29.98,ENE,77,2.0,6.0,70,0.00,,,0.00,WUHU216DAVISVP2,2013-04-19 03:22:00,
2013-04-18 23:27:00,69.1,59.5,29.98,SW,217,4.0,6.0,71,0.00,,,0.00,WUHU216DAVISVP2,2013-04-19 03:27:00,
2013-04-18 23:30:00,69.0,59.2,29.98,SW,225,1.0,7.0,71,0.00,,,0.00,WUHU216DAVISVP2,2013-04-19 03:30:00,
2013-04-18 23:32:00,68.9,59.3,29.98,NW,308,2.0,7.0,71,0.00,,,0.00,WUHU216DAVISVP2,2013-04-19 03:32:00,
2013-04-18 23:37:00,68.7,59.5,29.98,SSW,198,0.0,7.0,72,0.00,,,0.00,WUHU216DAVISVP2,2013-04-19 03:37:00,
2013-04-18 23:42:00,68.6,59.4,29.98,South,172,2.0,7.0,72,0.00,,,0.00,WUHU216DAVISVP2,2013-04-19 03:42:00,
2013-04-18 23:47:00,68.6,59.7,29.98,SW,235,1.0,7.0,73,0.00,,,0.00,WUHU216DAVISVP2,2013-04-19 03:47:00,
2013-04-18 23:52:00,68.7,59.8,29.98,WSW,239,2.0,9.0,73,0.00,,,0.00,WUHU216DAVISVP2,2013-04-19 03:52:00,
2013-04-18 23:57:00,68.6,59.7,29.98,West,262,2.0,9.0,73,0.00,,,0.00,WUHU216DAVISVP2,2013-04-19 03:57:00,